TimeCST,TemperatureF,Dew PointF,Humidity,Sea Level PressureIn,VisibilityMPH,Wind Direction,Wind SpeedMPH,Gust SpeedMPH,PrecipitationIn,Events,Conditions,WindDirDegrees,DateUTC
12:39 AM,15.8,12.2,86,29.90,0.2,Calm,Calm,-,N/A,Fog,Light Freezing Fog,0,2013-01-08 06:39:00
12:53 AM,15.1,14.0,95,29.97,0.2,Calm,Calm,-,N/A,Fog,Light Freezing Fog,0,2013-01-08 06:53:00
1:53 AM,15.1,12.9,91,29.96,0.2,Calm,Calm,-,N/A,Fog,Light Freezing Fog,0,2013-01-08 07:53:00
2:28 AM,15.8,12.2,86,29.88,0.2,South,5.8,-,N/A,Fog,Light Freezing Fog,180,2013-01-08 08:28:00
2:53 AM,16.0,14.0,92,29.94,0.2,South,3.5,-,N/A,Fog,Light Freezing Fog,170,2013-01-08 08:53:00
3:07 AM,15.8,12.2,86,29.87,0.2,South,5.8,-,N/A,Fog,Light Freezing Fog,170,2013-01-08 09:07:00
3:53 AM,16.0,12.9,88,29.92,0.2,South,4.6,-,N/A,Fog,Light Freezing Fog,180,2013-01-08 09:53:00
4:10 AM,15.8,12.2,86,29.85,0.5,Calm,Calm,-,N/A,Fog,Light Freezing Fog,0,2013-01-08 10:10:00
4:16 AM,15.8,10.4,79,29.85,2.5,NW,3.5,-,N/A,,Overcast,320,2013-01-08 10:16:00
4:23 AM,15.8,12.2,86,29.84,5.0,WNW,3.5,-,N/A,,Overcast,300,2013-01-08 10:23:00
4:35 AM,14.0,10.4,86,29.84,1.2,West,3.5,-,N/A,,Overcast,280,2013-01-08 10:35:00
4:41 AM,14.0,10.4,86,29.84,0.2,West,4.6,-,N/A,Fog,Light Freezing Fog,280,2013-01-08 10:41:00
4:48 AM,14.0,10.4,86,29.84,0.2,WNW,4.6,-,N/A,Fog,Light Freezing Fog,290,2013-01-08 10:48:00
4:53 AM,14.0,12.0,92,29.91,0.2,West,3.5,-,N/A,Fog,Light Freezing Fog,280,2013-01-08 10:53:00
5:53 AM,14.0,10.9,88,29.92,0.2,Calm,Calm,-,N/A,Fog,Light Freezing Fog,0,2013-01-08 11:53:00
6:36 AM,12.2,8.6,85,29.82,0.5,SSE,4.6,-,N/A,Fog,Light Freezing Fog,160,2013-01-08 12:36:00
6:42 AM,12.2,8.6,85,29.82,1.2,South,4.6,-,N/A,,Mostly Cloudy,180,2013-01-08 12:42:00
6:50 AM,14.0,10.4,86,29.83,3.0,SSW,4.6,-,N/A,,Mostly Cloudy,200,2013-01-08 12:50:00
6:53 AM,14.0,10.9,88,29.91,3.0,SSW,4.6,-,N/A,,Mostly Cloudy,200,2013-01-08 12:53:00
6:57 AM,14.0,10.4,86,29.83,2.5,South,6.9,-,N/A,,Scattered Clouds,190,2013-01-08 12:57:00
6:59 AM,14.0,10.4,86,29.83,2.5,SSW,5.8,-,N/A,,Mostly Cloudy,200,2013-01-08 12:59:00
7:06 AM,12.2,10.4,92,29.83,3.0,SSW,3.5,-,N/A,,Scattered Clouds,210,2013-01-08 13:06:00
7:34 AM,12.2,8.6,85,29.84,2.5,West,5.8,-,N/A,,Partly Cloudy,270,2013-01-08 13:34:00
7:46 AM,12.2,8.6,85,29.85,6.0,WSW,4.6,-,N/A,,Mostly Cloudy,240,2013-01-08 13:46:00
7:53 AM,12.2,10.4,92,29.85,2.0,WSW,5.8,-,N/A,,Mostly Cloudy,240,2013-01-08 13:53:00
8:25 AM,15.8,12.2,86,29.84,1.2,West,8.1,-,N/A,,Overcast,260,2013-01-08 14:25:00
8:35 AM,15.8,12.2,86,29.84,3.0,SW,5.8,-,N/A,,Overcast,220,2013-01-08 14:35:00
8:53 AM,16.0,10.9,81,29.94,3.0,SW,4.6,-,N/A,,Haze,230,2013-01-08 14:53:00
9:03 AM,15.8,12.2,86,29.86,4.0,West,4.6,-,N/A,,Scattered Clouds,280,2013-01-08 15:03:00
9:53 AM,24.1,19.9,84,29.92,5.0,SSW,4.6,-,N/A,,Clear,200,2013-01-08 15:53:00
10:53 AM,28.0,24.1,85,29.92,9.0,SW,8.1,-,N/A,,Clear,230,2013-01-08 16:53:00
11:53 AM,30.0,25.0,82,29.90,10.0,WSW,10.4,-,N/A,,Clear,250,2013-01-08 17:53:00
12:53 PM,37.0,27.0,67,29.89,10.0,WSW,13.8,-,N/A,,Clear,250,2013-01-08 18:53:00
1:53 PM,39.0,28.9,67,29.91,10.0,WSW,9.2,-,N/A,,Clear,240,2013-01-08 19:53:00
2:53 PM,39.0,30.9,73,29.94,10.0,West,8.1,-,N/A,,Clear,260,2013-01-08 20:53:00
3:53 PM,39.0,30.9,73,29.98,10.0,WSW,9.2,-,N/A,,Clear,250,2013-01-08 21:53:00
4:53 PM,37.9,30.9,76,30.00,10.0,West,6.9,-,N/A,,Clear,260,2013-01-08 22:53:00
5:53 PM,36.0,30.9,82,30.05,10.0,SW,9.2,-,N/A,,Clear,230,2013-01-08 23:53:00
6:53 PM,34.0,30.0,85,30.08,10.0,WSW,9.2,-,N/A,,Clear,240,2013-01-09 00:53:00
7:53 PM,34.0,28.9,82,30.12,10.0,West,9.2,-,N/A,,Clear,260,2013-01-09 01:53:00
8:53 PM,33.1,27.0,78,30.16,10.0,West,6.9,-,N/A,,Clear,270,2013-01-09 02:53:00
9:53 PM,32.0,27.0,82,30.18,10.0,West,6.9,-,N/A,,Clear,270,2013-01-09 03:53:00
10:53 PM,30.0,25.0,82,30.20,10.0,West,9.2,-,N/A,,Clear,260,2013-01-09 04:53:00
11:53 PM,30.0,25.0,82,30.23,10.0,West,10.4,-,N/A,,Clear,270,2013-01-09 05:53:00